EN

Hourly Weather Abbenrode

Today, 14 June, Monday

Time Temperature Precipitation Wind Pressure Humidity
00:00 +12°C° 0 mm 1 mps 747 mmHg 88%
01:00 +11°C° 0 mm 1 mps 747 mmHg 89%
02:00 +11°C° 0 mm 1 mps 747 mmHg 89%
03:00 +11°C° 0 mm 1 mps 747 mmHg 90%
04:00 +11°C° 0 mm 1 mps 746 mmHg 90%
05:00 +13°C° 0 mm 1 mps 746 mmHg 85%
06:00 +15°C° 0 mm 1 mps 746 mmHg 80%
07:00 +16°C° 0 mm 1 mps 746 mmHg 75%
08:00 +19°C° 0 mm 1 mps 746 mmHg 70%
09:00 +20°C° 0 mm 1 mps 746 mmHg 65%
10:00 +21°C° 0 mm 2 mps 746 mmHg 60%
11:00 +23°C° 0 mm 2 mps 745 mmHg 59%
12:00 +24°C° 0 mm 2 mps 745 mmHg 57%
13:00 +25°C° 0 mm 2 mps 745 mmHg 55%
14:00 +25°C° 0 mm 2 mps 744 mmHg 55%
15:00 +25°C° 0 mm 2 mps 744 mmHg 55%
16:00 +26°C° 0 mm 2 mps 744 mmHg 55%
17:00 +25°C° 0 mm 1 mps 743 mmHg 61%
18:00 +24°C° 0 mm 1 mps 743 mmHg 68%
19:00 +24°C° 0 mm 1 mps 743 mmHg 74%
20:00 +22°C° 0 mm 1 mps 743 mmHg 77%
21:00 +20°C° 0 mm 1 mps 743 mmHg 81%
22:00 +18°C° 0 mm 1 mps 743 mmHg 85%
23:00 +18°C° 0 mm 1 mps 742 mmHg 85%

Tomorrow, 15 June, Tuesday

Time Temperature Precipitation Wind Pressure Humidity
00:00 +18°C° 0 mm 1 mps 742 mmHg 85%
01:00 +16°C° 0 mm 1 mps 742 mmHg 85%
02:00 +16°C° 0 mm 1 mps 742 mmHg 87%
03:00 +15°C° 0 mm 1 mps 742 mmHg 89%
04:00 +15°C° 0 mm 1 mps 742 mmHg 91%
05:00 +16°C° 0 mm 2 mps 743 mmHg 90%
06:00 +16°C° 0 mm 2 mps 743 mmHg 89%
07:00 +17°C° 0 mm 2 mps 743 mmHg 87%
08:00 +18°C° 0 mm 2 mps 744 mmHg 84%
09:00 +19°C° 0 mm 2 mps 744 mmHg 81%
10:00 +20°C° 0 mm 2 mps 744 mmHg 78%
11:00 +20°C° 0.1 mm 3 mps 744 mmHg 77%
12:00 +20°C° 0.1 mm 3 mps 744 mmHg 76%
13:00 +20°C° 0.1 mm 3 mps 744 mmHg 76%
14:00 +20°C° 0 mm 3 mps 744 mmHg 72%
15:00 +21°C° 0 mm 3 mps 744 mmHg 69%
16:00 +21°C° 0 mm 2 mps 743 mmHg 66%
17:00 +20°C° 0 mm 2 mps 743 mmHg 71%
18:00 +20°C° 0 mm 2 mps 743 mmHg 75%
19:00 +19°C° 0 mm 2 mps 743 mmHg 79%
20:00 +18°C° 0 mm 1 mps 743 mmHg 82%
21:00 +16°C° 0 mm 1 mps 743 mmHg 85%
22:00 +14°C° 0 mm 1 mps 743 mmHg 88%
23:00 +14°C° 0 mm 1 mps 743 mmHg 88%

Day after tomorrow, 16 June, Wednesday

Time Temperature Precipitation Wind Pressure Humidity
00:00 +13°C° 0 mm 1 mps 743 mmHg 87%
01:00 +13°C° 0 mm 1 mps 743 mmHg 87%
02:00 +13°C° 0 mm 1 mps 743 mmHg 88%
03:00 +12°C° 0 mm 1 mps 743 mmHg 89%
04:00 +12°C° 0 mm 1 mps 742 mmHg 90%
05:00 +14°C° 0 mm 1 mps 742 mmHg 86%
06:00 +16°C° 0 mm 1 mps 742 mmHg 82%
07:00 +18°C° 0 mm 1 mps 742 mmHg 78%
08:00 +19°C° 0 mm 2 mps 742 mmHg 75%
09:00 +21°C° 0 mm 2 mps 742 mmHg 72%
10:00 +22°C° 0 mm 3 mps 742 mmHg 69%
11:00 +24°C° 0 mm 3 mps 742 mmHg 68%
12:00 +25°C° 0 mm 3 mps 742 mmHg 66%
13:00 +25°C° 0 mm 3 mps 741 mmHg 65%
14:00 +25°C° 0.1 mm 4 mps 741 mmHg 66%
15:00 +25°C° 0.1 mm 4 mps 741 mmHg 67%
16:00 +26°C° 0.1 mm 4 mps 741 mmHg 68%
17:00 +25°C° 0.1 mm 3 mps 741 mmHg 72%
18:00 +24°C° 0.1 mm 3 mps 740 mmHg 75%
19:00 +24°C° 0.1 mm 3 mps 740 mmHg 79%
20:00 +21°C° 0 mm 3 mps 740 mmHg 83%
21:00 +20°C° 0 mm 3 mps 740 mmHg 86%
22:00 +19°C° 0 mm 2 mps 740 mmHg 90%
23:00 +19°C° 0 mm 2 mps 740 mmHg 90%

17 June, Thursday

Time Temperature Precipitation Wind Pressure Humidity
00:00 +18°C° 0 mm 2 mps 740 mmHg 91%
01:00 +18°C° 0 mm 2 mps 739 mmHg 92%
02:00 +18°C° 0 mm 2 mps 739 mmHg 91%
03:00 +18°C° 0 mm 2 mps 739 mmHg 91%
04:00 +18°C° 0 mm 2 mps 739 mmHg 90%
05:00 +19°C° 0 mm 2 mps 739 mmHg 85%
06:00 +21°C° 0 mm 2 mps 739 mmHg 80%
07:00 +24°C° 0 mm 2 mps 740 mmHg 75%
08:00 +25°C° 0 mm 2 mps 740 mmHg 69%
09:00 +26°C° 0 mm 3 mps 740 mmHg 64%
10:00 +28°C° 0 mm 3 mps 740 mmHg 58%
11:00 +29°C° 0 mm 4 mps 740 mmHg 57%
12:00 +29°C° 0 mm 4 mps 740 mmHg 55%
13:00 +30°C° 0 mm 4 mps 739 mmHg 53%
14:00 +30°C° 0 mm 4 mps 739 mmHg 54%
15:00 +30°C° 0 mm 4 mps 739 mmHg 56%
16:00 +30°C° 0 mm 4 mps 739 mmHg 57%
17:00 +29°C° 0 mm 4 mps 739 mmHg 62%
18:00 +28°C° 0 mm 3 mps 739 mmHg 67%
19:00 +27°C° 0 mm 3 mps 739 mmHg 73%
20:00 +25°C° 0 mm 2 mps 739 mmHg 75%
21:00 +24°C° 0 mm 2 mps 739 mmHg 78%
22:00 +21°C° 0 mm 2 mps 739 mmHg 80%
23:00 +21°C° 0 mm 2 mps 739 mmHg 80%

18 June, Friday

Time Temperature Precipitation Wind Pressure Humidity
00:00 +20°C° 0 mm 2 mps 739 mmHg 81%
01:00 +20°C° 0 mm 2 mps 738 mmHg 81%
02:00 +19°C° 0 mm 2 mps 738 mmHg 82%
03:00 +20°C° 0 mm 1 mps 739 mmHg 83%
04:00 +20°C° 0 mm 1 mps 739 mmHg 84%
05:00 +21°C° 0 mm 1 mps 739 mmHg 81%
06:00 +22°C° 0 mm 1 mps 739 mmHg 78%
07:00 +24°C° 0 mm 1 mps 739 mmHg 75%
08:00 +25°C° 0 mm 1 mps 739 mmHg 72%
09:00 +26°C° 0 mm 1 mps 739 mmHg 69%
10:00 +28°C° 0 mm 1 mps 739 mmHg 66%
11:00 +29°C° 0.1 mm 1 mps 739 mmHg 63%
12:00 +29°C° 0.1 mm 1 mps 739 mmHg 60%
13:00 +30°C° 0.1 mm 2 mps 739 mmHg 57%
14:00 +30°C° 0.1 mm 2 mps 739 mmHg 56%
15:00 +31°C° 0.1 mm 2 mps 739 mmHg 55%
16:00 +31°C° 0.1 mm 2 mps 739 mmHg 55%
17:00 +30°C° 0.1 mm 2 mps 739 mmHg 62%
18:00 +28°C° 0.1 mm 2 mps 739 mmHg 69%
19:00 +27°C° 0.1 mm 2 mps 739 mmHg 76%
20:00 +25°C° 1.2 mm 2 mps 739 mmHg 74%
21:00 +23°C° 1.2 mm 2 mps 739 mmHg 72%
22:00 +20°C° 1.2 mm 2 mps 739 mmHg 70%
23:00 +20°C° 0.1 mm 2 mps 739 mmHg 73%

19 June, Saturday

Time Temperature Precipitation Wind Pressure Humidity
00:00 +20°C° 0.1 mm 2 mps 739 mmHg 76%
01:00 +20°C° 0.1 mm 2 mps 739 mmHg 80%
02:00 +20°C° 0 mm 2 mps 739 mmHg 78%
03:00 +21°C° 0 mm 1 mps 739 mmHg 76%
04:00 +21°C° 0 mm 1 mps 739 mmHg 75%
05:00 +22°C° 0.1 mm 1 mps 740 mmHg 75%
06:00 +23°C° 0.1 mm 1 mps 740 mmHg 75%
07:00 +24°C° 0.1 mm 1 mps 741 mmHg 74%
08:00 +25°C° 0.1 mm 2 mps 741 mmHg 71%
09:00 +27°C° 0.1 mm 2 mps 741 mmHg 67%
10:00 +28°C° 0.1 mm 3 mps 741 mmHg 63%
11:00 +28°C° 0.3 mm 2 mps 741 mmHg 64%
12:00 +27°C° 0.3 mm 2 mps 741 mmHg 65%
13:00 +27°C° 0.3 mm 1 mps 741 mmHg 66%
14:00 +28°C° 0.3 mm 1 mps 741 mmHg 65%
15:00 +28°C° 0.3 mm 1 mps 741 mmHg 64%
16:00 +29°C° 0.3 mm 1 mps 741 mmHg 63%
17:00 +28°C° 0.3 mm 1 mps 740 mmHg 69%
18:00 +27°C° 0.3 mm 1 mps 740 mmHg 74%
19:00 +27°C° 0.3 mm 1 mps 740 mmHg 80%
20:00 +25°C° 0.1 mm 1 mps 740 mmHg 83%
21:00 +24°C° 0.1 mm 2 mps 740 mmHg 86%
22:00 +21°C° 0.1 mm 2 mps 740 mmHg 89%
23:00 +21°C° 0.1 mm 2 mps 739 mmHg 90%
Show more